Погода в Сомовке

Россия / Нижегородская область     56°07′56″N   45°43′11″E
темп.,
°C
ветер,
м/с
пор.,
м/с
влажн.,
%
обл.,
%
осадки,
мм/ч
давл.,
гПа
погр.,
м
18 сентября, сб
сб1800:00+2сз38955 0.1 1019230
03:00+3сз3990100 0.1 1019388
06:00+5ссз3788100 0.0 1020608
09:00+7с467177 0.1 10211013
12:00+10с454170 0.0 10221728
15:00+11с353871 0.0 10221886
18:00+6ссз235667 0.0 102343
21:00+3с25785 0.0 102592
19 сентября, вс
вс1900:00+1с11915 0.0 102611
03:000сз1192100 0.0 102614
06:000ссз118698 0.0 102618
09:00+5с2356100 0.0 1027489
12:00+9с224396 0.0 10261176
15:00+10ссв224078 0.0 10251341
18:00+6св2259100 0.0 102517
21:00+4всв2367100 0.0 102551
20 сентября, пн
пн2000:00+3всв3974100 0.0 1026262
03:00+1всв31081100 0.0 1026318
06:00+2всв4107799 0.0 1026389
09:00+5в5859100 0.0 1027622
12:00+8в5749100 0.0 10261041
15:00+9в4748100 0.0 10251165
18:00+7в495198 0.0 1025752
21:00+7в41054100 0.0 1025809
21 сентября, вт
вт2100:00+6в51255100 0.0 1024608
03:00+6в51257100 0.0 1022564
06:00+6в51368100 0.1 1022690
09:00+5в51387100 1.3 1021662
12:00+5в61390100 0.6 1020687
15:00+6в61387100 0.8 1019705
18:00+6в51285100 0.0 1018680
21:00+5в51285100 0.0 1017487
22 сентября, ср
ср2200:00+5всв51382100 0.0 1015446
03:00+6в51475100 0.0 1014491
06:00+6в51585100 1.7 1012596
09:00+6в41292100 4.6 1012596
12:00+6в41095100 2.9 1011500
15:00+7св2698100 12.8 1010298
18:00+7ююв139994 3.4 1011116
21:00+6юз229816 3.4 101349